Location: Eaton Estates
(41.3089°N, 82.0057°W)
Time: 12:05:28
(UTC+00:00)

CAS-6 - Visible Passes

Search period start: 28 March 2023 00:00
Search period end: 07 April 2023 00:00
Orbit: 612 x 632 km, 97.9° (Epoch: 28 March)

Date Brightness Start Highest point End Pass type
(mag) Time Alt. Az. Time Alt. Az. Time Alt. Az.
30 Mar ? 03:11:16 11° N 03:11:16 11° N 03:11:23 10° N visible
31 Mar ? 03:29:13 11° N 03:29:13 11° N 03:29:28 10° N visible
01 Apr ? 03:47:10 12° N 03:47:10 12° N 03:47:26 10° N visible
02 Apr ? 04:05:07 11° NNW 04:05:07 11° NNW 04:05:14 10° NNW visible
03 Apr ? 02:45:52 11° NNE 02:45:52 11° NNE 02:46:02 10° NNE visible
04 Apr ? 03:03:49 13° NNE 03:03:49 13° NNE 03:04:23 10° N visible
05 Apr ? 03:21:45 15° N 03:21:45 15° N 03:22:31 10° N visible
06 Apr ? 03:39:41 15° N 03:39:41 15° N 03:40:30 10° N visible
